EIA143 EKCH-EGLL

Flight info

Callsign EIA143
Flight time N/A
Altitude 32000
Route LANGO DCT ABNED L980 LOGAN
Aircraft B742/H-SDFHIRWXY/L

Departure

Time 2026-04-22 12:31
Airport Copenhagen Kastrup Airport (EKCH)

Arrival

Time N/A
Airport London Heathrow Airport (EGLL)
Time Latitude Longitude Altitude Speed Heading
2026-04-22 11:45 55.61951 12.67089 18 ft 0 kts 79°
2026-04-22 12:12 55.61951 12.67088 17 ft 0 kts 79°
2026-04-22 12:12 55.61950 12.67071 17 ft 2 kts 79°
2026-04-22 12:13 55.61948 12.67045 17 ft 2 kts 91°
2026-04-22 12:13 55.61949 12.67019 17 ft 2 kts 104°
2026-04-22 12:13 55.61954 12.66995 17 ft 2 kts 115°
2026-04-22 12:13 55.61961 12.66972 17 ft 2 kts 127°
2026-04-22 12:14 55.61971 12.66954 17 ft 2 kts 139°
2026-04-22 12:14 55.61982 12.66939 17 ft 2 kts 150°
2026-04-22 12:14 55.61996 12.66928 17 ft 2 kts 162°
2026-04-22 12:14 55.62004 12.66924 17 ft 1 kts 170°
2026-04-22 12:15 55.62007 12.66923 17 ft 0 kts 169°
2026-04-22 12:18 55.62006 12.66923 17 ft 1 kts 169°
2026-04-22 12:18 55.61985 12.66930 17 ft 5 kts 169°
2026-04-22 12:18 55.61932 12.66946 17 ft 9 kts 177°
2026-04-22 12:18 55.61885 12.66866 17 ft 10 kts 259°
2026-04-22 12:19 55.61873 12.66749 17 ft 8 kts 260°
2026-04-22 12:19 55.61864 12.66661 17 ft 6 kts 260°
2026-04-22 12:19 55.61856 12.66589 17 ft 5 kts 260°
2026-04-22 12:19 55.61850 12.66519 18 ft 6 kts 260°
2026-04-22 12:20 55.61855 12.66425 18 ft 9 kts 303°
2026-04-22 12:20 55.61914 12.66355 18 ft 12 kts 341°
2026-04-22 12:20 55.62001 12.66304 18 ft 14 kts 341°
2026-04-22 12:20 55.62106 12.66240 18 ft 16 kts 340°
2026-04-22 12:21 55.62220 12.66163 18 ft 19 kts 338°
2026-04-22 12:21 55.62317 12.66090 18 ft 11 kts 330°
2026-04-22 12:21 55.62332 12.66026 18 ft 4 kts 242°
2026-04-22 12:21 55.62318 12.65980 18 ft 4 kts 242°
2026-04-22 12:22 55.62307 12.65924 18 ft 6 kts 257°
2026-04-22 12:22 55.62301 12.65837 19 ft 8 kts 266°
2026-04-22 12:22 55.62297 12.65722 19 ft 10 kts 269°
2026-04-22 12:22 55.62296 12.65586 20 ft 12 kts 270°
2026-04-22 12:23 55.62296 12.65419 21 ft 14 kts 271°
2026-04-22 12:23 55.62299 12.65266 21 ft 8 kts 268°
2026-04-22 12:23 55.62277 12.65202 21 ft 5 kts 202°
2026-04-22 12:23 55.62239 12.65182 21 ft 6 kts 195°
2026-04-22 12:24 55.62194 12.65155 21 ft 8 kts 204°
2026-04-22 12:24 55.62134 12.65095 22 ft 11 kts 213°
2026-04-22 12:24 55.62060 12.65010 22 ft 14 kts 213°
2026-04-22 12:24 55.61969 12.64904 23 ft 17 kts 214°
2026-04-22 12:25 55.61857 12.64772 23 ft 21 kts 213°
2026-04-22 12:25 55.61726 12.64625 24 ft 24 kts 213°
2026-04-22 12:25 55.61577 12.64451 24 ft 27 kts 214°
2026-04-22 12:25 55.61416 12.64266 24 ft 27 kts 213°
2026-04-22 12:26 55.61263 12.64095 24 ft 25 kts 213°
2026-04-22 12:26 55.61127 12.63936 24 ft 23 kts 214°
2026-04-22 12:26 55.61000 12.63788 24 ft 20 kts 214°
2026-04-22 12:26 55.60885 12.63653 24 ft 18 kts 213°
2026-04-22 12:27 55.60782 12.63535 24 ft 16 kts 213°
2026-04-22 12:27 55.60690 12.63430 23 ft 14 kts 213°
2026-04-22 12:27 55.60612 12.63327 23 ft 13 kts 220°
2026-04-22 12:27 55.60548 12.63230 23 ft 11 kts 221°
2026-04-22 12:28 55.60495 12.63150 22 ft 9 kts 221°
2026-04-22 12:28 55.60447 12.63109 22 ft 6 kts 180°
2026-04-22 12:28 55.60410 12.63135 22 ft 4 kts 138°
2026-04-22 12:28 55.60405 12.63144 22 ft 0 kts 132°
2026-04-22 12:29 55.60405 12.63145 22 ft 0 kts 132°
2026-04-22 12:29 55.60399 12.63156 22 ft 2 kts 132°
2026-04-22 12:29 55.60382 12.63189 22 ft 5 kts 133°
2026-04-22 12:29 55.60353 12.63246 22 ft 8 kts 133°
2026-04-22 12:30 55.60344 12.63357 22 ft 1 kts 41°
2026-04-22 12:30 55.60351 12.63369 22 ft 4 kts 41°
2026-04-22 12:30 55.60447 12.63515 23 ft 46 kts 41°
2026-04-22 12:31 55.60852 12.64145 25 ft 108 kts 41°
2026-04-22 12:31 55.61551 12.65227 25 ft 160 kts 39°
2026-04-22 12:31 55.62421 12.66590 326 ft 175 kts 36°
2026-04-22 12:31 55.63320 12.67974 852 ft 178 kts 35°
2026-04-22 12:32 55.64277 12.69382 1459 ft 180 kts 33°
2026-04-22 12:32 55.66140 12.72252 2486 ft 194 kts 34°
2026-04-22 12:32 55.67223 12.73877 2754 ft 217 kts 35°
2026-04-22 12:33 55.68411 12.75658 2992 ft 232 kts 36°
2026-04-22 12:33 55.69680 12.77558 3263 ft 252 kts 36°
2026-04-22 12:33 55.70784 12.79949 3842 ft 267 kts 62°
2026-04-22 12:33 55.71093 12.83195 4488 ft 283 kts 92°
2026-04-22 12:34 55.70427 12.86485 5182 ft 296 kts 122°
2026-04-22 12:34 55.68926 12.88875 5970 ft 302 kts 151°
2026-04-22 12:34 55.66917 12.89967 6440 ft 314 kts 171°
2026-04-22 12:34 55.64762 12.90670 7073 ft 319 kts 166°
2026-04-22 12:35 55.62652 12.91565 7846 ft 318 kts 172°
2026-04-22 12:35 55.60546 12.91287 8737 ft 310 kts 201°
2026-04-22 12:35 55.58684 12.89580 9402 ft 310 kts 219°
2026-04-22 12:35 55.57085 12.87176 10025 ft 311 kts 227°
2026-04-22 12:36 55.55591 12.84540 10701 ft 313 kts 229°
2026-04-22 12:36 55.54074 12.81761 11057 ft 327 kts 229°
2026-04-22 12:36 55.52562 12.78704 11367 ft 342 kts 239°
2026-04-22 12:36 55.51517 12.74911 11552 ft 354 kts 257°
2026-04-22 12:37 55.51100 12.70687 11858 ft 365 kts 270°
2026-04-22 12:37 55.51008 12.66177 12019 ft 381 kts 272°
2026-04-22 12:37 55.50931 12.61391 12331 ft 395 kts 271°
2026-04-22 12:37 55.50807 12.56669 13067 ft 397 kts 271°
2026-04-22 12:38 55.50648 12.51821 13721 ft 400 kts 270°
2026-04-22 12:38 55.50470 12.46894 14346 ft 405 kts 270°
2026-04-22 12:38 55.50285 12.42029 14930 ft 409 kts 269°
2026-04-22 12:38 55.50090 12.36960 15549 ft 413 kts 269°
2026-04-22 12:39 55.49890 12.31962 16125 ft 418 kts 268°
2026-04-22 12:39 55.48484 12.21980 17267 ft 432 kts 244°
2026-04-22 12:39 55.46904 12.17525 17798 ft 436 kts 235°
2026-04-22 12:40 55.45094 12.13279 18377 ft 440 kts 232°
2026-04-22 12:40 55.43210 12.09038 18986 ft 443 kts 232°
2026-04-22 12:40 55.41319 12.04764 19518 ft 447 kts 232°
2026-04-22 12:40 55.39464 12.00518 20107 ft 450 kts 233°
2026-04-22 12:41 55.37567 11.96135 20705 ft 453 kts 233°
2026-04-22 12:41 55.35664 11.91718 21231 ft 457 kts 233°
2026-04-22 12:41 55.33810 11.87414 21772 ft 460 kts 233°
2026-04-22 12:41 55.32909 11.85321 22020 ft 462 kts 233°
2026-04-22 12:42 55.30978 11.80844 22540 ft 465 kts 233°
2026-04-22 12:42 55.29016 11.76300 23018 ft 469 kts 233°
2026-04-22 12:42 55.27042 11.71738 23531 ft 471 kts 233°
2026-04-22 12:42 55.25084 11.67206 23970 ft 475 kts 234°
2026-04-22 12:43 55.23212 11.62434 24381 ft 479 kts 237°
2026-04-22 12:43 55.21401 11.57478 24795 ft 482 kts 238°
2026-04-22 12:43 55.19615 11.52513 25167 ft 486 kts 238°
2026-04-22 12:43 55.17811 11.47521 25522 ft 490 kts 238°
2026-04-22 12:44 55.15997 11.42548 25930 ft 493 kts 238°
2026-04-22 12:44 55.14135 11.37486 26218 ft 497 kts 238°
2026-04-22 12:44 55.12277 11.32478 26580 ft 500 kts 236°
2026-04-22 12:44 55.10372 11.27453 26905 ft 503 kts 236°
2026-04-22 12:45 55.08498 11.22536 27231 ft 506 kts 236°
2026-04-22 12:45 55.06591 11.17514 27543 ft 508 kts 236°
2026-04-22 12:45 55.04668 11.12428 27808 ft 511 kts 236°
2026-04-22 12:45 55.02773 11.07402 28096 ft 514 kts 236°
2026-04-22 12:46 55.00868 11.02344 28373 ft 517 kts 236°
2026-04-22 12:46 54.98934 10.97214 28689 ft 518 kts 236°
2026-04-22 12:46 54.96983 10.92046 28943 ft 521 kts 236°
2026-04-22 12:46 54.95157 10.87215 29170 ft 524 kts 236°
2026-04-22 12:47 54.93220 10.81951 29417 ft 526 kts 238°
2026-04-22 12:47 54.91396 10.76700 29661 ft 526 kts 239°
2026-04-22 12:47 54.89644 10.71549 29971 ft 523 kts 239°
2026-04-22 12:47 54.87887 10.66370 30281 ft 523 kts 239°
2026-04-22 12:48 54.86086 10.61089 30633 ft 521 kts 239°
2026-04-22 12:48 54.84262 10.55780 31006 ft 520 kts 239°
2026-04-22 12:48 54.82539 10.50798 31346 ft 519 kts 239°
2026-04-22 12:48 54.80680 10.45444 31697 ft 519 kts 239°
2026-04-22 12:49 54.78860 10.40225 32031 ft 519 kts 239°
2026-04-22 12:49 54.77068 10.35097 32241 ft 521 kts 238°
2026-04-22 12:49 54.75971 10.31984 32299 ft 525 kts 237°
2026-04-22 12:50 54.72546 10.22437 32331 ft 537 kts 237°
2026-04-22 12:50 54.68808 10.11979 32341 ft 537 kts 238°
2026-04-22 12:51 54.64983 10.01203 32344 ft 531 kts 238°
2026-04-22 12:51 54.61290 9.90813 32343 ft 530 kts 238°
2026-04-22 12:52 54.57529 9.80273 32348 ft 531 kts 238°
2026-04-22 12:52 54.53667 9.69498 32351 ft 531 kts 238°
2026-04-22 12:53 54.49921 9.59098 32359 ft 529 kts 238°
2026-04-22 12:53 54.46291 9.49062 32363 ft 528 kts 238°
2026-04-22 12:54 54.42413 9.38380 32363 ft 528 kts 238°
2026-04-22 12:54 54.38520 9.27803 32365 ft 528 kts 237°
2026-04-22 12:55 54.34566 9.17212 32369 ft 527 kts 237°
2026-04-22 12:55 54.30804 9.07055 32371 ft 526 kts 238°
2026-04-22 12:56 54.28672 9.01284 32371 ft 525 kts 238°
2026-04-22 12:56 54.25569 8.92897 32376 ft 525 kts 238°
2026-04-22 12:57 54.21665 8.82384 32385 ft 523 kts 238°
2026-04-22 12:57 54.17786 8.71986 32383 ft 523 kts 238°
2026-04-22 12:58 54.13878 8.61551 32385 ft 523 kts 238°
2026-04-22 12:58 54.10001 8.51246 32391 ft 521 kts 238°
2026-04-22 12:59 54.06090 8.40894 32393 ft 521 kts 238°
2026-04-22 12:59 54.02171 8.30602 32393 ft 519 kts 237°
2026-04-22 13:00 53.98192 8.20364 32392 ft 519 kts 237°
2026-04-22 13:00 53.94255 8.10169 32398 ft 520 kts 238°
2026-04-22 13:01 53.90317 7.99931 32397 ft 520 kts 238°
2026-04-22 13:01 53.86387 7.89731 32400 ft 521 kts 238°
2026-04-22 13:02 53.82501 7.79685 32401 ft 519 kts 238°
2026-04-22 13:02 53.78560 7.69547 32400 ft 518 kts 238°
2026-04-22 13:03 53.74653 7.59538 32398 ft 518 kts 238°
2026-04-22 13:03 53.70691 7.49428 32398 ft 519 kts 238°
2026-04-22 13:04 53.66721 7.39339 32396 ft 519 kts 238°
2026-04-22 13:04 53.62722 7.29286 32393 ft 519 kts 236°
2026-04-22 13:05 53.58709 7.19362 32393 ft 518 kts 237°
2026-04-22 13:05 53.54765 7.09535 32395 ft 518 kts 237°
2026-04-22 13:06 53.50776 6.99569 32395 ft 518 kts 237°
2026-04-22 13:06 53.46827 6.89725 32397 ft 518 kts 237°
2026-04-22 13:07 53.42809 6.79752 32397 ft 518 kts 237°
2026-04-22 13:07 53.38795 6.69833 32399 ft 518 kts 237°
2026-04-22 13:08 53.34776 6.59936 32398 ft 517 kts 237°
2026-04-22 13:08 53.30736 6.50030 32394 ft 517 kts 237°
2026-04-22 13:09 53.26722 6.40222 32394 ft 517 kts 237°
2026-04-22 13:09 53.22666 6.30399 32389 ft 516 kts 236°
2026-04-22 13:10 53.18615 6.20770 32388 ft 516 kts 236°
2026-04-22 13:10 53.14595 6.11148 32385 ft 516 kts 236°
2026-04-22 13:11 53.10609 6.01576 32390 ft 515 kts 236°
2026-04-22 13:11 53.06586 5.91933 32394 ft 515 kts 236°
2026-04-22 13:12 53.02514 5.82210 32400 ft 515 kts 236°
2026-04-22 13:12 52.98489 5.72637 32399 ft 515 kts 236°
2026-04-22 13:13 52.94417 5.62989 32397 ft 514 kts 236°
2026-04-22 13:13 52.90320 5.53319 32396 ft 513 kts 236°
2026-04-22 13:14 52.86327 5.43926 32390 ft 513 kts 236°
2026-04-22 13:14 52.82939 5.35985 32391 ft 513 kts 236°
2026-04-22 13:15 52.78934 5.26752 32388 ft 512 kts 235°
2026-04-22 13:15 52.74793 5.17267 32386 ft 512 kts 235°
2026-04-22 13:16 52.70910 5.08314 32387 ft 512 kts 236°
2026-04-22 13:16 52.66508 4.98153 32381 ft 512 kts 236°
2026-04-22 13:17 52.62384 4.88660 32381 ft 511 kts 236°
2026-04-22 13:17 52.58267 4.79223 32385 ft 511 kts 236°
2026-04-22 13:18 52.54161 4.69846 32381 ft 510 kts 236°
2026-04-22 13:18 52.50004 4.60389 32383 ft 509 kts 236°
2026-04-22 13:19 52.45873 4.51024 32376 ft 509 kts 236°
2026-04-22 13:19 52.41730 4.41667 32376 ft 508 kts 236°
2026-04-22 13:20 52.37589 4.32364 32376 ft 508 kts 234°
2026-04-22 13:20 52.33409 4.23168 32374 ft 508 kts 234°
2026-04-22 13:21 52.29208 4.13884 32373 ft 507 kts 235°
2026-04-22 13:21 52.25161 4.04898 32371 ft 507 kts 235°
2026-04-22 13:22 52.20989 3.95644 32376 ft 506 kts 235°
2026-04-22 13:22 52.16853 3.86499 32374 ft 505 kts 235°
2026-04-22 13:23 52.12671 3.77290 32364 ft 505 kts 235°
2026-04-22 13:23 52.08540 3.68224 32365 ft 504 kts 235°
2026-04-22 13:24 52.04786 3.60016 32365 ft 503 kts 235°
2026-04-22 13:24 52.03042 3.56210 32370 ft 503 kts 235°
2026-04-22 13:25 51.98758 3.46885 32365 ft 503 kts 235°
2026-04-22 13:25 51.94597 3.37864 32364 ft 502 kts 235°
2026-04-22 13:26 51.90428 3.28934 32363 ft 502 kts 234°
2026-04-22 13:26 51.86385 3.20240 32347 ft 500 kts 239°
2026-04-22 13:26 51.84866 3.15506 32362 ft 496 kts 251°
2026-04-22 13:27 51.83936 3.10215 32352 ft 493 kts 262°
2026-04-22 13:27 51.83364 2.99270 32351 ft 491 kts 269°
2026-04-22 13:28 51.82951 2.88779 32346 ft 490 kts 268°
2026-04-22 13:28 51.82333 2.77803 32347 ft 490 kts 266°
2026-04-22 13:29 51.81623 2.66882 32357 ft 490 kts 266°
2026-04-22 13:29 51.80886 2.56035 32360 ft 488 kts 266°
2026-04-22 13:30 51.80309 2.47667 32352 ft 488 kts 266°
2026-04-22 13:30 51.79556 2.36842 32347 ft 487 kts 266°
2026-04-22 13:31 51.78757 2.26053 32348 ft 487 kts 265°
2026-04-22 13:31 51.77999 2.15193 32340 ft 486 kts 267°
2026-04-22 13:32 51.77375 2.04431 32346 ft 485 kts 267°
2026-04-22 13:32 51.76504 1.89482 32059 ft 466 kts 268°
2026-04-22 13:33 51.76199 1.84412 31831 ft 455 kts 268°
2026-04-22 13:33 51.75895 1.79392 31605 ft 443 kts 268°
2026-04-22 13:33 51.75602 1.74578 31386 ft 433 kts 268°
2026-04-22 13:33 51.75308 1.69772 31151 ft 425 kts 268°
2026-04-22 13:34 51.75017 1.65031 30916 ft 423 kts 268°
2026-04-22 13:34 51.74748 1.60514 30680 ft 424 kts 270°
2026-04-22 13:34 51.74527 1.56003 30210 ft 430 kts 269°
2026-04-22 13:34 51.74224 1.51212 29570 ft 434 kts 268°
2026-04-22 13:35 51.73903 1.46458 28922 ft 434 kts 267°
2026-04-22 13:35 51.73574 1.41605 28264 ft 433 kts 267°
2026-04-22 13:35 51.73254 1.36809 27607 ft 432 kts 268°
2026-04-22 13:35 51.72936 1.32085 26969 ft 432 kts 266°
2026-04-22 13:36 51.72593 1.27293 26322 ft 431 kts 265°
2026-04-22 13:36 51.72255 1.22547 25653 ft 431 kts 266°
2026-04-22 13:36 51.71924 1.17799 25012 ft 430 kts 265°
2026-04-22 13:36 51.71598 1.13011 24345 ft 429 kts 265°
2026-04-22 13:37 51.71276 1.08230 23702 ft 428 kts 265°
2026-04-22 13:37 51.70957 1.03483 23063 ft 428 kts 265°
2026-04-22 13:37 51.70637 0.98740 22422 ft 427 kts 265°
2026-04-22 13:37 51.70319 0.94055 21792 ft 426 kts 264°
2026-04-22 13:38 51.69997 0.89346 21149 ft 425 kts 264°
2026-04-22 13:38 51.69346 0.79897 19881 ft 424 kts 264°
2026-04-22 13:38 51.69021 0.75238 19263 ft 423 kts 263°
2026-04-22 13:39 51.68693 0.70552 18606 ft 412 kts 263°
2026-04-22 13:39 51.68378 0.66088 17990 ft 399 kts 263°
2026-04-22 13:39 51.68069 0.61748 17380 ft 387 kts 262°
2026-04-22 13:39 51.67765 0.57529 16768 ft 377 kts 262°
2026-04-22 13:40 51.67468 0.53412 16154 ft 368 kts 262°
2026-04-22 13:40 51.67176 0.49391 15555 ft 360 kts 262°
2026-04-22 13:40 51.66888 0.45449 14938 ft 353 kts 262°
2026-04-22 13:40 51.66606 0.41576 14327 ft 347 kts 262°
2026-04-22 13:41 51.66324 0.37732 13727 ft 341 kts 262°
2026-04-22 13:41 51.66050 0.34044 13103 ft 336 kts 261°
2026-04-22 13:41 51.65755 0.30341 12492 ft 331 kts 260°
2026-04-22 13:41 51.65467 0.26717 11883 ft 327 kts 261°
2026-04-22 13:42 51.65190 0.23102 11252 ft 323 kts 261°
2026-04-22 13:42 51.64923 0.19555 10644 ft 320 kts 261°
2026-04-22 13:42 51.64661 0.16080 10045 ft 317 kts 261°
2026-04-22 13:42 51.64435 0.12601 9441 ft 314 kts 263°
2026-04-22 13:43 51.64252 0.09131 8831 ft 312 kts 263°
2026-04-22 13:43 51.64083 0.05883 8315 ft 307 kts 263°
2026-04-22 13:43 51.63907 0.02606 7970 ft 299 kts 263°
2026-04-22 13:43 51.63729 -0.00642 7604 ft 298 kts 263°
2026-04-22 13:44 51.63551 -0.03863 7388 ft 291 kts 263°
2026-04-22 13:44 51.63380 -0.06947 7330 ft 278 kts 263°
2026-04-22 13:44 51.63220 -0.09821 7316 ft 263 kts 262°
2026-04-22 13:44 51.63060 -0.12629 7326 ft 269 kts 262°
2026-04-22 13:45 51.62894 -0.15553 7316 ft 267 kts 262°
2026-04-22 13:45 51.62732 -0.18344 7314 ft 267 kts 262°
2026-04-22 13:45 51.62537 -0.21228 7319 ft 268 kts 261°
2026-04-22 13:45 51.62332 -0.24170 7322 ft 267 kts 261°
2026-04-22 13:46 51.62130 -0.27104 7218 ft 271 kts 261°
2026-04-22 13:46 51.61933 -0.29921 7026 ft 268 kts 261°
2026-04-22 13:46 51.61737 -0.32754 6976 ft 264 kts 261°
2026-04-22 13:46 51.61535 -0.35686 6965 ft 265 kts 261°
2026-04-22 13:47 51.61340 -0.38510 6963 ft 266 kts 261°
2026-04-22 13:47 51.61151 -0.41284 6955 ft 256 kts 261°
2026-04-22 13:47 51.60803 -0.46692 7219 ft 236 kts 261°
2026-04-22 13:48 51.60629 -0.49354 7296 ft 257 kts 261°
2026-04-22 13:48 51.60446 -0.52047 7313 ft 267 kts 261°
2026-04-22 13:48 51.60083 -0.57349 7314 ft 267 kts 261°
2026-04-22 13:49 51.59886 -0.60197 7309 ft 267 kts 261°
2026-04-22 13:49 51.59690 -0.63021 7310 ft 268 kts 261°
2026-04-22 13:49 51.59493 -0.65887 7307 ft 268 kts 261°
2026-04-22 13:49 51.59296 -0.68788 7306 ft 268 kts 261°
2026-04-22 13:50 51.59096 -0.71582 7230 ft 267 kts 255°
2026-04-22 13:50 51.58575 -0.74420 7029 ft 264 kts 246°
2026-04-22 13:50 51.58013 -0.76953 6822 ft 260 kts 246°
2026-04-22 13:50 51.57409 -0.79647 6594 ft 252 kts 245°
2026-04-22 13:51 51.56843 -0.82193 6371 ft 244 kts 246°
2026-04-22 13:51 51.56305 -0.84622 6162 ft 234 kts 244°
2026-04-22 13:51 51.55466 -0.86487 5938 ft 211 kts 205°
2026-04-22 13:51 51.54210 -0.87220 5733 ft 198 kts 182°
2026-04-22 13:52 51.52893 -0.87564 5511 ft 198 kts 181°
2026-04-22 13:52 51.51549 -0.87886 5211 ft 198 kts 180°
2026-04-22 13:52 51.50306 -0.88190 4919 ft 195 kts 181°
2026-04-22 13:52 51.48992 -0.88517 4603 ft 194 kts 181°
2026-04-22 13:53 51.47759 -0.88481 4268 ft 181 kts 150°
2026-04-22 13:53 51.46928 -0.87222 3924 ft 170 kts 108°
2026-04-22 13:53 51.46918 -0.85602 3620 ft 170 kts 70°
2026-04-22 13:53 51.47409 -0.83832 3292 ft 162 kts 85°
2026-04-22 13:54 51.47480 -0.82161 3046 ft 155 kts 86°
2026-04-22 13:54 51.47542 -0.80514 2968 ft 151 kts 87°
2026-04-22 13:54 51.47577 -0.78948 2949 ft 150 kts 88°
2026-04-22 13:54 51.47596 -0.77264 2944 ft 150 kts 89°
2026-04-22 13:55 51.47608 -0.75672 2941 ft 150 kts 89°
2026-04-22 13:55 51.47617 -0.74140 2943 ft 150 kts 89°
2026-04-22 13:55 51.47630 -0.71854 2800 ft 153 kts 89°
2026-04-22 13:55 51.47635 -0.70732 2706 ft 150 kts 89°
2026-04-22 13:56 51.47644 -0.69115 2557 ft 151 kts 89°
2026-04-22 13:56 51.47652 -0.67608 2404 ft 150 kts 89°
2026-04-22 13:56 51.47663 -0.65618 2125 ft 142 kts 88°
2026-04-22 13:56 51.47671 -0.64066 1968 ft 139 kts 88°
2026-04-22 13:57 51.47679 -0.62586 1833 ft 141 kts 88°
2026-04-22 13:57 51.47687 -0.61065 1625 ft 139 kts 89°
2026-04-22 13:57 51.47695 -0.59564 1443 ft 136 kts 89°
2026-04-22 13:57 51.47702 -0.58190 1302 ft 129 kts 89°
2026-04-22 13:58 51.47709 -0.56858 1122 ft 129 kts 89°
2026-04-22 13:58 51.47715 -0.55399 951 ft 129 kts 88°
2026-04-22 13:58 51.47723 -0.53946 794 ft 131 kts 88°
2026-04-22 13:58 51.47725 -0.52630 626 ft 131 kts 90°
2026-04-22 13:59 51.47745 -0.51412 474 ft 130 kts 89°